Location: ?ern� Novina
(50.6762°N, 14.8696°E)
Time: 12:53:27
(UTC+00:00)

Cosmos 1378 - Pass Details

Date: 03 March 2021
Orbit: 489 x 501 km, 82.5° (Epoch: 16 April)

Event Time Altitude Azimuth Distance (km) Brightness Sun altitude
Rises 18:23:58 0° 356° (N) 2,607 7.0 -16.3°
Reaches altitude 10° 18:26:14 10° 5° (N) 1,716 5.9 -16.7°
Enters shadow 18:29:30 35° 65° (ENE) 831 3.8 -17.2°
